Stations météo

réclame
Mon MeteoGroup
Solenzara, France (7765): Température de l'air & dewpoint: 29.07.2020 19:00:00 - 04.08.2020 19:00:00 (CEST)Solenzara, France (7765): Température de l'air 5cm: 29.07.2020 19:00:00 - 04.08.2020 19:00:00 (CEST)Solenzara, France (7765): Température de l'air -20cm: 29.07.2020 19:00:00 - 04.08.2020 19:00:00 (CEST)Solenzara, France (7765): Vitesse du vent & gusts: 29.07.2020 19:00:00 - 04.08.2020 19:00:00 (CEST)Solenzara, France (7765): Direction du vent: 29.07.2020 19:00:00 - 04.08.2020 19:00:00 (CEST)Solenzara, France (7765): reduced air pressure: 29.07.2020 19:00:00 - 04.08.2020 19:00:00 (CEST)Solenzara, France (7765): visibility: 29.07.2020 19:00:00 - 04.08.2020 19:00:00 (CEST)Solenzara, France (7765): Ensoleillement: 29.07.2020 19:00:00 - 04.08.2020 19:00:00 (CEST)Solenzara, France (7765): Quantités de précipitations: 29.07.2020 19:00:00 - 04.08.2020 19:00:00 (CEST)
Date & Time tt [°C] td [°C] tt 5cm [°C] tt -20cm [°C] ff [km/h] ff [knt] fx [km/h] fx [knt] dd ppp [hPa] vv [km] sd [min] rr [mm]
04.08.2020 19:00:00 26,3 15,4 26,6 28,3 16 9 26 14 SSE 1006,9 60 0 0,0
04.08.2020 18:00:00 27,8 14,1 29,6 28,3 9 5 14 8 ESE 1006,9 60 0 0,0
04.08.2020 17:00:00 26,3 12,7 25,0 28,3 9 5 29 15 W 1006,9 55 0 0,0
04.08.2020 16:00:00 22,9 15,0 24,2 28,2 11 6 43 23 NW 1007,6 59 0 0,0
04.08.2020 15:00:00 27,7 12,1 22,7 28,2 10 5 37 20 NW 1007,0 44 0 0,0
04.08.2020 14:00:00 21,8 16,7 22,6 28,2 18 10 31 17 W 1006,5 31 0 0,2
04.08.2020 13:00:00 27,1 11,2 30,9 28,1 16 9 32 18 S 1005,8 59 0 0,0
04.08.2020 12:00:00 30,5 10,5 34,4 28,2 19 11 27 15 SE 1004,9 41 0 0,0
04.08.2020 11:00:00 29,1 8,7 33,4 28,2 18 10 27 15 SE 1004,7 42 0 0,0
04.08.2020 10:00:00 27,6 8,9 29,7 28,3 17 9 34 19 W 1004,6 41 0 0,0
04.08.2020 09:00:00 26,2 9,5 27,3 28,4 21 11 43 23 W 1004,8 58 0 0,0
04.08.2020 08:00:00 25,3 9,6 23,1 28,4 14 7 36 19 WNW 1004,4 60 0 0,0
04.08.2020 07:00:00 24,1 9,7 22,2 28,5 16 9 46 25 WNW 1003,6 37 0 0,0
04.08.2020 06:00:00 24,4 8,4 21,8 28,6 28 15 50 27 WNW 1003,3 60 0 0,0
04.08.2020 05:00:00 24,4 7,1 21,5 28,7 16 8 30 16 NNW 1002,9 60 0 0,0
04.08.2020 04:00:00 25,2 8,6 23,3 28,8 20 11 55 30 W 1002,8 60 0 0,0
04.08.2020 03:00:00 25,9 7,9 24,2 28,9 20 11 52 28 W 1003,2 60 0 0,0
04.08.2020 02:00:00 25,8 10,0 25,0 28,9 26 14 47 26 SW 1003,8 60 0 0,0
04.08.2020 01:00:00 26,3 10,0 24,0 29,0 17 9 61 33 WSW 1004,3 60 0 0,0
04.08.2020 00:00:00 26,4 11,3 24,2 29,0 13 7 37 20 W 1004,8 60 0 0,0
03.08.2020 23:00:00 25,9 11,3 24,7 29,0 14 7 32 17 W 1005,1 60 0 0,0
03.08.2020 22:00:00 25,7 10,7 24,9 29,0 16 8 29 15 WSW 1005,2 60 0 0,0
03.08.2020 21:00:00 26,4 10,9 25,9 29,0 17 9 31 17 WSW 1004,7 60 0 0,0
03.08.2020 20:00:00 27,7 10,8 28,2 29,0 16 8 36 19 W 1004,7 51 0 0,0
03.08.2020 19:00:00 29,2 10,8 30,3 28,9 22 12 39 21 WSW 1004,7 26 0 0,0
03.08.2020 18:00:00 30,2 13,5 33,6 28,9 16 9 42 23 W 1004,8 24 0 0,0
03.08.2020 17:00:00 31,5 13,3 36,0 28,9 26 14 64 35 WSW 1005,0 27 0 0,0
03.08.2020 16:00:00 33,1 12,1 33,2 28,9 22 12 66 36 W 1005,0 32 0 0,0
03.08.2020 15:00:00 31,1 12,0 30,1 28,9 13 7 50 27 WNW 1005,2 49 0 0,0
03.08.2020 14:00:00 30,7 13,5 30,3 28,9 18 10 46 25 W 1006,5 51 0 0,0
03.08.2020 13:00:00 28,1 22,8 29,3 28,9 15 8 25 13 S 1006,7 23 0 0,0
03.08.2020 12:00:00 27,8 24,0 29,2 28,9 13 7 23 13 SSE 1006,7 26 0 0,0
03.08.2020 11:00:00 28,1 23,5 31,2 28,9 10 5 16 9 S 1006,9 35 0 0,0
03.08.2020 10:00:00 28,6 23,3 31,7 29,0 11 6 19 10 SE 1007,0 29 0 0,0
03.08.2020 09:00:00 29,4 22,6 29,1 29,0 5 3 18 10 SSE 1007,3 25 0 0,0
03.08.2020 08:00:00 27,7 23,3 24,1 29,1 9 5 15 8 N 1007,3 20 0 0,0
03.08.2020 07:00:00 24,5 22,2 21,9 29,2 3 2 13 7 WNW 1007,1 23 0 0,0
03.08.2020 06:00:00 23,9 21,8 21,7 29,3 5 3 13 7 WSW 1006,5 20 0 0,0
03.08.2020 05:00:00 24,6 21,7 21,6 29,4 5 3 11 6 W 1006,6 27 0 0,0
03.08.2020 04:00:00 24,3 20,8 22,5 29,5 4 2 14 8 W 1007,1 29 0 0,0
03.08.2020 03:00:00 24,8 21,3 22,8 29,5 11 6 21 12 NNE 1007,6 29 0 0,0
03.08.2020 02:00:00 25,4 21,7 22,9 29,6 5 3 31 17 SW 1007,5 30 0 0,0
03.08.2020 01:00:00 24,4 20,5 22,7 29,6 5 3 12 7 NNE 1007,6 30 0 0,0
03.08.2020 00:00:00 25,8 20,1 23,0 29,6 5 3 10 6 W 1007,9 34 0 0,0
02.08.2020 23:00:00 25,9 21,1 23,9 29,6 6 4 10 6 W 1007,9 34 0 0,0
02.08.2020 22:00:00 26,6 21,6 24,9 29,6 6 4 10 6 W 1008,0 34 0 0,0
02.08.2020 21:00:00 27,3 22,7 26,1 29,6 4 2 7 4 ENE 1008,0 32 0 0,0
02.08.2020 20:00:00 29,0 23,0 28,5 29,5 3 1 11 6 ENE 1008,2 36 0 0,0
02.08.2020 19:00:00 29,9 22,1 30,3 29,3 9 5 17 9 ESE 1008,4 38 0 0,0
02.08.2020 18:00:00 30,8 22,4 32,1 29,2 11 6 19 11 ESE 1008,6 36 0 0,0
02.08.2020 17:00:00 31,2 22,5 34,0 29,1 13 7 21 12 SE 1009,0 19 0 0,0
02.08.2020 16:00:00 31,0 23,6 34,9 29,0 13 7 21 12 ESE 1009,4 28 0 0,0
02.08.2020 15:00:00 31,5 23,6 36,2 28,9 16 8 24 13 SE 1009,9 19 0 0,0
02.08.2020 14:00:00 30,9 23,3 36,2 28,8 14 8 21 11 SE 1010,2 33 0 0,0
02.08.2020 13:00:00 30,6 23,3 36,8 28,8 13 7 21 11 ESE 1010,5 32 0 0,0
02.08.2020 12:00:00 30,4 23,8 34,2 28,8 12 6 19 11 ESE 1010,8 35 0 0,0
02.08.2020 11:00:00 29,9 22,3 34,6 28,8 11 6 18 10 E 1010,9 36 0 0,0
02.08.2020 10:00:00 30,1 22,3 34,5 28,9 10 5 16 8 ENE 1011,0 20 0 0,0
02.08.2020 09:00:00 29,9 21,8 28,3 29,0 3 2 9 5 ENE 1010,8 38 0 0,0
02.08.2020 08:00:00 26,5 16,7 23,6 29,1 6 3 14 8 W 1010,5 48 0 0,0
02.08.2020 07:00:00 23,7 16,0 22,9 29,2 9 5 16 9 WNW 1010,5 53 0 0,0
02.08.2020 06:00:00 24,1 14,8 22,8 29,3 10 5 18 10 W 1010,1 56 0 0,0
02.08.2020 05:00:00 24,1 15,0 22,8 29,3 10 5 17 9 W 1010,2 54 0 0,0
02.08.2020 04:00:00 24,0 15,8 23,3 29,4 10 5 16 9 W 1010,5 53 0 0,0
02.08.2020 03:00:00 24,8 16,0 23,2 29,5 9 5 15 8 W 1010,8 53 0 0,0
02.08.2020 02:00:00 25,0 16,2 22,5 29,6 9 5 18 10 W 1011,3 53 0 0,0
02.08.2020 01:00:00 25,5 16,1 22,9 29,6 10 5 15 8 W 1011,6 54 0 0,0
02.08.2020 00:00:00 25,8 18,7 22,8 29,6 6 4 10 6 W 1011,5 44 0 0,0
01.08.2020 23:00:00 26,6 21,1 23,3 29,6 6 3 11 6 WNW 1011,7 36 0 0,0
01.08.2020 22:00:00 27,0 22,0 24,1 29,6 6 4 11 6 W 1011,5 34 0 0,0
01.08.2020 21:00:00 27,9 23,9 25,8 29,5 0 0 4 2 N 1010,8 33 0 0,0
01.08.2020 20:00:00 29,5 24,1 28,9 29,4 4 2 9 5 SE 1010,5 36 0 0,0
01.08.2020 19:00:00 30,6 23,8 30,7 29,3 5 3 13 7 ESE 1010,8 35 0 0,0
01.08.2020 18:00:00 31,3 23,7 32,8 29,2 8 5 16 9 ESE 1011,3 45 0 0,0
01.08.2020 17:00:00 31,7 23,3 34,2 29,0 9 5 18 10 SE 1011,8 33 0 0,0
01.08.2020 16:00:00 32,0 22,4 35,9 28,9 11 6 18 10 SE 1012,2 34 0 0,0
01.08.2020 15:00:00 31,5 22,5 36,4 28,8 11 6 19 10 ESE 1012,6 20 0 0,0
01.08.2020 14:00:00 32,3 21,8 37,0 28,7 11 6 19 10 SE 1013,0 38 0 0,0
01.08.2020 13:00:00 33,0 21,2 40,3 28,7 11 6 18 10 SE 1013,5 20 0 0,0
01.08.2020 12:00:00 31,4 20,7 36,5 28,7 11 6 18 10 SSE 1013,9 12 0 0,0
01.08.2020 11:00:00 31,8 22,8 37,6 28,7 13 7 18 10 SE 1013,9 48 0 0,0
01.08.2020 10:00:00 31,2 19,9 36,0 28,7 10 6 16 8 SSE 1013,8 47 0 0,0
01.08.2020 09:00:00 30,6 18,3 28,9 28,8 7 4 10 5 S 1014,1 50 0 0,0
01.08.2020 08:00:00 27,6 13,9 23,8 28,9 5 3 10 5 W 1014,3 52 0 0,0
01.08.2020 07:00:00 25,9 12,7 22,0 29,0 7 4 23 12 SW 1014,1 56 0 0,0
01.08.2020 06:00:00 24,3 13,2 22,6 29,1 10 6 22 12 NW 1013,9 59 0 0,0
01.08.2020 05:00:00 25,3 13,5 22,0 29,2 10 6 21 11 W 1013,6 60 0 0,0
01.08.2020 04:00:00 24,9 14,4 22,0 29,2 10 6 18 10 W 1013,8 60 0 0,0
01.08.2020 03:00:00 25,9 17,3 24,0 29,3 9 5 21 11 NNW 1014,3 57 0 0,0
01.08.2020 02:00:00 26,4 16,3 24,2 29,3 10 5 20 11 W 1014,3 59 0 0,0
01.08.2020 01:00:00 27,1 17,0 23,6 29,4 10 6 17 9 WSW 1014,6 56 0 0,0
01.08.2020 00:00:00 27,2 18,8 24,4 29,4 6 3 17 9 W 1014,6 54 0 0,0
31.07.2020 23:00:00 28,2 20,7 25,4 29,4 10 5 19 10 W 1014,6 55 0 0,0
31.07.2020 22:00:00 28,3 20,8 25,2 29,3 8 4 16 9 WNW 1014,8 49 0 0,0
31.07.2020 21:00:00 28,3 23,7 26,5 29,3 3 2 8 4 SW 1014,9 51 0 0,0
31.07.2020 20:00:00 29,2 24,5 29,2 29,2 5 3 8 5 SSE 1015,0 47 0 0,0
31.07.2020 19:00:00 30,3 24,0 30,7 29,1 5 3 12 6 E 1015,0 46 0 0,0
31.07.2020 18:00:00 29,4 21,1 29,6 29,0 5 3 13 7 E 1014,9 18 0 0,0
31.07.2020 17:00:00 29,4 24,5 31,0 28,9 6 3 14 8 ESE 1015,2 44 0 0,0
31.07.2020 16:00:00 30,5 24,6 34,4 28,8 10 5 18 10 E 1015,5 39 0 0,0
31.07.2020 15:00:00 31,5 25,8 36,0 28,6 12 7 20 11 ESE 1015,4 38 0 0,0
31.07.2020 14:00:00 31,4 24,0 36,2 28,5 9 5 20 11 ESE 1015,7 39 0 0,0
31.07.2020 13:00:00 30,7 24,8 37,8 28,5 12 7 21 12 ESE 1015,9 20 0 0,0
31.07.2020 12:00:00 30,7 24,4 35,5 28,5 12 7 19 10 SE 1016,1 44 0 0,0
31.07.2020 11:00:00 30,7 23,4 35,7 28,5 11 6 17 9 ESE 1016,3 57 0 0,0
31.07.2020 10:00:00 29,6 22,6 33,2 28,6 9 5 14 7 ESE 1016,5 1,6 0 0,0
31.07.2020 09:00:00 29,2 21,4 29,2 28,7 9 5 12 7 E 1016,7 59 0 0,0
31.07.2020 08:00:00 27,9 18,3 22,8 28,8 2 1 10 5 W 1016,5 48 0 0,0
31.07.2020 07:00:00 24,2 18,4 20,7 28,8 6 3 10 5 WNW 1016,6 44 0 0,0
31.07.2020 06:00:00 24,3 17,8 21,0 28,9 6 3 9 5 W 1016,4 40 0 0,0
31.07.2020 05:00:00 25,2 18,4 21,7 29,0 6 3 18 10 NW 1016,6 46 0 0,0
31.07.2020 04:00:00 24,9 18,1 21,6 29,1 9 5 13 7 W 1016,7 52 0 0,0
31.07.2020 03:00:00 25,1 17,8 21,8 29,1 9 5 13 7 W 1016,8 53 0 0,0
31.07.2020 02:00:00 25,3 18,0 22,1 29,1 8 5 15 8 W 1017,2 52 0 0,0
31.07.2020 01:00:00 25,4 19,5 22,8 29,2 7 4 11 6 W 1017,3 45 0 0,0
31.07.2020 00:00:00 25,2 22,5 23,5 29,2 0 0 9 5 N 1017,2 48 0 0,0
30.07.2020 23:00:00 26,4 23,1 24,7 29,1 4 2 17 9 WSW 1016,8 55 0 0,0
30.07.2020 22:00:00 27,0 24,5 25,7 29,1 2 1 18 10 S 1016,5 56 0 0,0
30.07.2020 21:00:00 27,6 23,8 27,4 29,0 5 3 10 5 SE 1015,8 60 0 0,0
30.07.2020 20:00:00 28,7 24,0 29,9 29,0 10 5 15 8 S 1016,3 60 0 0,0
30.07.2020 19:00:00 30,0 22,7 31,6 28,9 9 5 16 8 SSE 1016,4 54 0 0,0
30.07.2020 18:00:00 30,8 22,9 32,3 28,8 8 5 13 7 ESE 1016,7 60 0 0,0
30.07.2020 17:00:00 30,6 21,9 33,4 28,6 8 5 16 8 ESE 1017,0 19 0 0,0
30.07.2020 16:00:00 30,5 23,2 34,2 28,4 10 5 21 11 ESE 1017,3 42 0 0,0
30.07.2020 15:00:00 31,1 23,7 35,8 28,4 11 6 20 11 ESE 1017,4 43 0 0,0
30.07.2020 14:00:00 30,7 23,6 36,1 28,3 13 7 19 11 ESE 1017,5 45 0 0,0
30.07.2020 13:00:00 30,2 24,1 36,1 28,2 12 6 19 10 ESE 1017,5 45 0 0,0
30.07.2020 12:00:00 29,7 23,4 34,4 28,2 12 6 18 10 ESE 1017,6 20 0 0,0
30.07.2020 11:00:00 29,4 22,4 34,6 28,3 10 5 16 8 ESE 1017,7 46 0 0,0
30.07.2020 10:00:00 29,3 22,5 32,9 28,3 8 5 13 7 E 1017,5 47 0 0,0
30.07.2020 09:00:00 28,9 20,9 29,1 28,4 5 3 12 7 ENE 1017,4 50 0 0,0
30.07.2020 08:00:00 27,3 20,9 23,7 28,5 3 1 8 5 NNE 1017,2 37 0 0,0
30.07.2020 07:00:00 24,1 18,5 22,6 28,5 5 3 14 8 W 1016,9 41 0 0,0
30.07.2020 06:00:00 23,8 18,2 21,6 28,6 9 5 14 8 W 1016,7 41 0 0,0
30.07.2020 05:00:00 24,2 18,6 21,7 28,7 8 4 14 7 W 1016,4 42 0 0,0
30.07.2020 04:00:00 24,4 19,2 22,1 28,8 4 2 11 6 WNW 1016,4 44 0 0,0
30.07.2020 03:00:00 24,9 19,7 23,2 28,8 5 3 14 8 WNW 1016,4 42 0 0,0
30.07.2020 02:00:00 25,3 19,7 22,5 28,8 8 4 12 7 W 1016,3 41 0 0,0
30.07.2020 01:00:00 25,2 20,2 23,1 28,9 7 4 16 9 W 1016,4 42 0 0,0
30.07.2020 00:00:00 25,3 20,8 22,9 28,9 7 4 12 7 W 1016,4 41 0 0,0
29.07.2020 23:00:00 25,7 21,6 23,2 28,9 6 4 10 6 W 1016,4 44 0 0,0
29.07.2020 22:00:00 26,4 22,3 24,1 28,9 2 1 7 4 W 1016,0 20 0 0,0
29.07.2020 21:00:00 26,6 23,3 25,3 28,8 2 1 7 4 SSE 1015,7 46 0 0,0
29.07.2020 20:00:00 27,9 23,7 28,0 28,7 5 3 13 7 SSE 1015,6 53 0 0,0
29.07.2020 19:00:00 28,6 23,1 29,8 28,6 8 4 17 9 SE 1015,3 48 0 0,0

tt = Température de l'air
td = dewpoint
tt 5cm = Température de l'air 5cm
tt -20cm = Température de l'air -20cm
ff = Vitesse du vent
fx = gusts
dd = Direction du vent
ppp = reduced air pressure
vv = visibility
sd = Ensoleillement
rr = Quantités de précipitations

stations d'obs. à proximité